Tracking 21992 objects as of 26-Nov-2020
HD Live streaming from Space Station
objects crossing your sky now

GSAT 1

Track GSAT 1 now!
GSAT 1 is classified as:


NORAD ID: 26745
Int'l Code: 2001-015A
Perigee: 33,841.5 km
Apogee: 35,811.7 km
Inclination: 12.0 °
Period: 1,387.0 minutes
Semi major axis: 41197 km
RCS: 3.1622 m2 (large)
Launch date: April 18, 2001
Source: India (IND)
Launch site: SRIHARIKOTA (SRI)
aabbcc
Your satellite tracking list
Your tracking list is empty




NASA's NSSDC Master Catalog

Two Line Element Set (TLE):
1 26745U 01015A   20330.59333773 -.00000251 +00000-0 +00000-0 0  9998
2 26745 012.0229 019.2801 0239116 241.9923 275.5615 01.03823189074451
Source of the keplerian elements: AFSPC